CW4611 Weather Reports


time (UTC)temp
C
wind
direction
speed
KPH
gust
KPH
rain 1hr
cm
rain 24hr
cm
rain mn
cm
humidity
%
barometer
mb
20260505093105 5 11 1.6 8.0 0.00 0.00 0.00 75 1009.5
20260505091604 5 9 0.0 0.0 0.00 0.00 0.00 75 1009.6
20260505091105 5 9 1.6 3.2 0.00 0.00 0.00 74 1009.7
20260505090604 5 9 0.0 3.2 0.00 0.00 0.00 73 1009.6
20260505090104 5 9 0.0 3.2 0.00 0.00 0.00 73 1009.7
20260505083604 6 9 0.0 0.0 0.00 0.00 0.00 70 1009.9
20260505083104 6 9 0.0 3.2 0.00 0.00 0.00 69 1009.8
20260505081605 5 5 0.0 0.0 0.00 0.00 0.00 70 1009.7
20260505080104 5 5 0.0 0.0 0.00 0.00 0.00 70 1009.7
20260505074604 5 5 0.0 0.0 0.00 0.00 0.00 70 1009.8
20260505074104 5 5 0.0 0.0 0.00 0.00 0.00 71 1009.8
20260505073604 5 5 0.0 0.0 0.00 0.00 0.00 71 1009.9
20260505073104 5 5 0.0 1.6 0.00 0.00 0.00 70 1010.0
20260505071605 5 5 0.0 3.2 0.00 0.00 0.00 70 1010.0
20260505071104 5 5 1.6 4.8 0.00 0.00 0.00 69 1010.0
20260505070604 5 6 3.2 3.2 0.00 0.00 0.00 69 1010.1
20260505070104 5 9 1.6 3.2 0.00 0.00 0.00 69 1010.0
20260505064604 5 9 0.0 0.0 0.00 0.00 0.00 70 1010.0
20260505063604 5 9 0.0 1.6 0.00 0.00 0.00 70 1010.1
20260505063104 5 9 0.0 4.8 0.00 0.00 0.00 70 1010.0
20260505061605 5 13 3.2 4.8 0.00 0.00 0.00 70 1010.1
20260505061107 5 14 1.6 11.3 0.00 0.00 0.00 69 1010.0
20260505060604 5 14 8.0 12.9 0.00 0.00 0.00 67 1010.0
20260505060104 6 9 1.6 4.8 0.00 0.00 0.00 66 1009.7
20260505054604 6 9 3.2 8.0 0.00 0.00 0.00 65 1009.7
20260505054104 6 11 3.2 8.0 0.00 0.00 0.00 64 1009.6
20260505053604 6 9 0.0 4.8 0.00 0.00 0.00 63 1009.6
20260505051104 6 10 8.0 19.3 0.00 0.00 0.00 62 1009.5
20260505050104 6 10 11.3 19.3 0.00 0.00 0.00 62 1009.4
20260505041105 6 10 8.0 12.9 0.00 0.00 0.00 64 1009.3
20260505040604 6 9 1.6 4.8 0.00 0.00 0.00 65 1009.3
20260505040105 7 9 1.6 9.7 0.00 0.00 0.00 64 1009.2
20260505034604 7 9 1.6 3.2 0.00 0.00 0.00 64 1009.2
20260505034104 7 9 1.6 4.8 0.00 0.00 0.00 63 1009.1
20260505033104 7 9 3.2 4.8 0.00 0.00 0.00 63 1009.1
20260505031604 7 10 1.6 4.8 0.00 0.00 0.00 63 1009.0
20260505031104 7 12 1.6 4.8 0.00 0.00 0.00 62 1009.0
20260505030604 8 9 3.2 4.8 0.00 0.00 0.00 60 1008.9
20260505030104 8 5 1.6 4.8 0.00 0.00 0.00 59 1008.9
20260505024604 8 15 3.2 4.8 0.00 0.00 0.00 57 1008.7
20260505024104 8 15 1.6 4.8 0.00 0.00 0.00 57 1008.7
20260505021604 9 10 3.2 8.0 0.00 0.00 0.00 55 1008.3
20260505021104 10 9 0.0 3.2 0.00 0.00 0.00 57 1008.3
20260505020604 10 9 3.2 8.0 0.00 0.00 0.00 56 1008.1
20260505014604 10 10 3.2 4.8 0.00 0.00 0.00 53 1008.0
20260505014104 11 10 1.6 4.8 0.00 0.00 0.00 52 1008.1
20260505013604 11 9 1.6 3.2 0.00 0.00 0.00 51 1008.1
20260505013104 11 5 0.0 3.2 0.00 0.00 0.00 51 1008.1
20260505010604 11 13 3.2 4.8 0.00 0.00 0.00 49 1008.3
20260505004604 11 14 4.8 8.0 0.00 0.00 0.00 49 1008.6
20260505004104 11 15 1.6 8.0 0.00 0.00 0.00 49 1008.6
20260505003604 11 14 3.2 11.3 0.00 0.00 0.00 49 1008.6
20260505003104 11 13 1.6 9.7 0.00 0.00 0.00 49 1008.7
20260505001604 11 13 1.6 4.8 0.00 0.00 0.00 51 1008.8
20260505001104 11 14 4.8 9.7 0.00 0.00 0.00 49 1008.8
20260505000104 11 13 4.8 11.3 0.00 0.00 0.00 50 1009.0
20260504234104 11 14 3.2 9.7 0.00 0.00 0.00 52 1009.1
20260504233604 11 13 4.8 14.5 0.00 0.00 0.00 52 1009.0
20260504233104 11 14 1.6 16.1 0.00 0.00 0.00 52 1008.9
20260504231604 11 13 6.4 14.5 0.00 0.00 0.00 50 1008.8
20260504231104 11 13 3.2 19.3 0.00 0.00 0.00 50 1008.6
20260504230104 12 12 6.4 19.3 0.00 0.00 0.00 44 1008.4
20260504224604 12 11 4.8 14.5 0.00 0.00 0.00 39 1008.1
20260504224104 12 13 4.8 8.0 0.00 0.00 0.00 41 1008.3
20260504223604 12 13 3.2 4.8 0.00 0.00 0.00 41 1008.0
20260504223105 12 11 0.0 11.3 0.00 0.00 0.00 40 1007.9
20260504221605 13 10 9.7 12.9 0.00 0.00 0.00 41 1007.8
20260504221106 12 9 8.0 19.3 0.00 0.00 0.00 40 1007.8
20260504220105 12 11 4.8 16.1 0.00 0.00 0.00 40 1008.0
20260504214605 12 11 11.3 20.9 0.00 0.00 0.00 41 1008.1
20260504214105 12 11 8.0 16.1 0.00 0.00 0.00 43 1008.1
20260504213605 12 11 8.0 16.1 0.00 0.00 0.00 43 1008.2
20260504213105 12 9 8.0 25.7 0.00 0.00 0.00 43 1008.2
20260504211105 12 11 14.5 25.7 0.00 0.00 0.00 45 1008.3
20260504210605 12 11 11.3 22.5 0.00 0.00 0.00 45 1008.3
20260504210105 12 11 9.7 35.4 0.00 0.00 0.00 45 1008.3
20260504204604 14 11 20.9 32.2 0.00 0.00 0.00 35 1008.1
20260504204105 16 9 6.4 12.9 0.00 0.00 0.00 25 1008.1
20260504203605 16 11 3.2 14.5 0.00 0.00 0.00 26 1008.2
20260504201605 16 13 9.7 22.5 0.00 0.00 0.00 29 1008.2
20260504201105 16 12 12.9 19.3 0.00 0.00 0.00 31 1008.1
20260504200604 16 13 6.4 16.1 0.00 0.00 0.00 35 1008.3
20260504200105 16 14 8.0 24.1 0.00 0.00 0.00 35 1008.4
20260504194605 15 12 9.7 19.3 0.00 0.00 0.00 30 1008.5
20260504193604 16 14 9.7 24.1 0.00 0.00 0.00 28 1008.5
20260504193104 16 13 4.8 20.9 0.00 0.00 0.00 25 1008.3
20260504191605 16 10 3.2 9.7 0.00 0.00 0.00 29 1008.4
20260504191105 15 13 3.2 14.5 0.00 0.00 0.00 31 1008.5
20260504190605 15 9 8.0 14.5 0.00 0.00 0.00 30 1008.5
20260504190105 14 10 3.2 19.3 0.00 0.00 0.00 31 1008.7
20260504184605 15 13 8.0 20.9 0.00 0.00 0.00 30 1008.8
20260504181604 16 341 8.0 20.9 0.00 0.00 0.00 28 1008.7
20260504181104 17 279 8.0 19.3 0.00 0.00 0.00 28 1008.8
20260504180604 16 191 8.0 16.1 0.00 0.00 0.00 28 1008.8
20260504180105 16 12 6.4 16.1 0.00 0.00 0.00 28 1008.8
20260504174605 16 13 9.7 19.3 0.00 0.00 0.00 29 1008.9
20260504174105 16 16 4.8 11.3 0.00 0.00 0.00 29 1009.0
20260504173605 16 13 4.8 16.1 0.00 0.00 0.00 30 1009.2
20260504173105 16 14 9.7 16.1 0.00 0.00 0.00 29 1009.2
20260504171605 16 13 4.8 12.9 0.00 0.00 0.00 30 1009.4
20260504171105 15 14 8.0 14.5 0.00 0.00 0.00 31 1009.4
20260504170104 15 18 4.8 11.3 0.00 0.00 0.00 34 1009.6
20260504160105 13 14 4.8 11.3 0.00 0.00 0.00 37 1009.9
20260504151105 11 12 4.8 8.0 0.00 0.00 0.00 40 1010.3
20260504150605 11 11 4.8 9.7 0.00 0.00 0.00 40 1010.2
20260504150105 11 11 4.8 9.7 0.00 0.00 0.00 42 1010.2
20260504141105 7 10 4.8 11.3 0.00 0.00 0.00 43 1010.4
20260504140104 7 11 3.2 9.7 0.00 0.00 0.00 50 1010.4
20260504130604 5 14 0.0 1.6 0.00 0.00 0.00 53 1010.9
20260504130104 5 14 0.0 3.2 0.00 0.00 0.00 53 1010.9
20260504110604 5 11 0.0 1.6 0.00 0.00 0.00 50 1010.6
20260504110104 5 11 1.6 4.8 0.00 0.00 0.00 47 1010.6
20260504100604 5 12 0.0 1.6 0.00 0.00 0.00 48 1010.7
20260504100104 5 12 0.0 8.0 0.00 0.00 0.00 48 1010.7